Location: Aalen
(48.8330°N, 10.1000°E)
Time: 14:30:53
(UTC+02:00)

XW-2C - Visible Passes

Search period start: 21 September 2021 00:00
Search period end: 01 October 2021 00:00
Orbit: 505 x 524 km, 97.5° (Epoch: 21 September)

Date Brightness Start Highest point End Pass type
(mag) Time Alt. Az. Time Alt. Az. Time Alt. Az.
24 Sep ? 06:31:02 10° NE 06:33:48 19° E 06:36:33 10° SE visible
25 Sep ? 06:16:41 10° ENE 06:18:37 14° E 06:20:32 10° ESE visible
27 Sep ? 19:38:45 10° WSW 19:40:50 14° W 19:42:54 10° WNW visible
30 Sep ? 06:34:38 10° NE 06:37:31 21° E 06:40:23 10° SE visible
